contact:dominique.lefevre@mio.osupytheas.fr, maurice.libes@osupytheas.fr, didier.mallarino@osupytheas.fr
Project:EMSO http://www.emso-fr.org/EMSO-France
Depth: 2436.0 m
Title:EMSO Ligure Ouest : Data MII capteur MICROCAT
DateTime_Computer,Latitude,Longitude,Temperature,Conductivity,Pressure,DateTime_Instrument
DateTime_Computer,Latitude,Longitude,degC,S m-1,dbar,DateTime_Instrument
2022-07-30T00:00:30Z,42.805,6.029,13.3012,4.60062,2470.717,2022-7-30T02:02:18Z
2022-07-30T00:03:33Z,42.805,6.029,13.3020,4.60097,2470.717,2022-7-30T02:05:21Z
2022-07-30T00:06:36Z,42.805,6.029,13.3017,4.60072,2470.646,2022-7-30T02:08:24Z
2022-07-30T00:09:39Z,42.805,6.029,13.3017,4.60079,2470.67,2022-7-30T02:11:27Z
2022-07-30T00:12:42Z,42.805,6.029,13.3024,4.60064,2470.693,2022-7-30T02:14:30Z
2022-07-30T00:15:45Z,42.805,6.029,13.3022,4.60068,2470.684,2022-7-30T02:17:33Z
2022-07-30T00:18:49Z,42.805,6.029,13.3022,4.60095,2470.693,2022-7-30T02:20:36Z
2022-07-30T00:21:52Z,42.805,6.029,13.3014,4.60075,2470.67,2022-7-30T02:23:39Z
2022-07-30T00:24:55Z,42.805,6.029,13.3015,4.60071,2470.693,2022-7-30T02:26:43Z
2022-07-30T00:27:58Z,42.805,6.029,13.3028,4.60064,2470.67,2022-7-30T02:29:46Z
2022-07-30T00:31:01Z,42.805,6.029,13.3011,4.60062,2470.646,2022-7-30T02:32:49Z
2022-07-30T00:34:04Z,42.805,6.029,13.3013,4.60063,2470.646,2022-7-30T02:35:52Z
2022-07-30T00:37:07Z,42.805,6.029,13.3023,4.60083,2470.693,2022-7-30T02:38:55Z
2022-07-30T00:40:10Z,42.805,6.029,13.3030,4.60087,2470.661,2022-7-30T02:41:58Z
2022-07-30T00:43:14Z,42.805,6.029,13.3013,4.60072,2470.67,2022-7-30T02:45:01Z
2022-07-30T00:46:17Z,42.805,6.029,13.3013,4.60095,2470.661,2022-7-30T02:48:04Z
2022-07-30T00:49:20Z,42.805,6.029,13.3017,4.60084,2470.661,2022-7-30T02:51:08Z
2022-07-30T00:52:23Z,42.805,6.029,13.3026,4.60085,2470.661,2022-7-30T02:54:11Z
2022-07-30T00:55:26Z,42.805,6.029,13.3018,4.60098,2470.624,2022-7-30T02:57:14Z
2022-07-30T00:58:29Z,42.805,6.029,13.3016,4.60072,2470.624,2022-7-30T03:00:17Z
2022-07-30T01:01:32Z,42.805,6.029,13.3013,4.60064,2470.624,2022-7-30T03:03:20Z
2022-07-30T01:04:35Z,42.805,6.029,13.3011,4.60065,2470.661,2022-7-30T03:06:23Z
2022-07-30T01:07:38Z,42.805,6.029,13.3014,4.60072,2470.637,2022-7-30T03:09:26Z
2022-07-30T01:10:42Z,42.805,6.029,13.3021,4.60086,2470.624,2022-7-30T03:12:29Z
2022-07-30T01:13:45Z,42.805,6.029,13.3021,4.60081,2470.661,2022-7-30T03:15:32Z
2022-07-30T01:16:48Z,42.805,6.029,13.3016,4.60087,2470.637,2022-7-30T03:18:36Z
2022-07-30T01:19:51Z,42.805,6.029,13.3019,4.60083,2470.661,2022-7-30T03:21:39Z
2022-07-30T01:22:54Z,42.805,6.029,13.3009,4.60067,2470.661,2022-7-30T03:24:42Z
2022-07-30T01:25:57Z,42.805,6.029,13.3012,4.60073,2470.6,2022-7-30T03:27:45Z
2022-07-30T01:29:00Z,42.805,6.029,13.3019,4.60067,2470.67,2022-7-30T03:30:48Z
2022-07-30T01:32:03Z,42.805,6.029,13.3010,4.60080,2470.6,2022-7-30T03:33:51Z
2022-07-30T01:35:07Z,42.805,6.029,13.3015,4.60064,2470.624,2022-7-30T03:36:54Z
2022-07-30T01:38:10Z,42.805,6.029,13.3011,4.60067,2470.637,2022-7-30T03:39:57Z
2022-07-30T01:41:13Z,42.805,6.029,13.3011,4.60066,2470.624,2022-7-30T03:43:01Z
2022-07-30T01:44:16Z,42.805,6.029,13.3017,4.60072,2470.624,2022-7-30T03:46:04Z
2022-07-30T01:47:19Z,42.805,6.029,13.3016,4.60068,2470.637,2022-7-30T03:49:07Z
2022-07-30T01:50:22Z,42.805,6.029,13.3011,4.60067,2470.6,2022-7-30T03:52:10Z
2022-07-30T01:53:25Z,42.805,6.029,13.3019,4.60071,2470.624,2022-7-30T03:55:13Z
2022-07-30T01:56:28Z,42.805,6.029,13.3014,4.60078,2470.6,2022-7-30T03:58:16Z
2022-07-30T01:59:32Z,42.805,6.029,13.3019,4.60064,2470.624,2022-7-30T04:01:19Z
2022-07-30T02:02:35Z,42.805,6.029,13.3020,4.60093,2470.624,2022-7-30T04:04:22Z
2022-07-30T02:05:38Z,42.805,6.029,13.3009,4.60089,2470.6,2022-7-30T04:07:25Z
2022-07-30T02:08:41Z,42.805,6.029,13.3028,4.60092,2470.614,2022-7-30T04:10:29Z
2022-07-30T02:11:44Z,42.805,6.029,13.3019,4.60087,2470.6,2022-7-30T04:13:32Z
2022-07-30T02:14:47Z,42.805,6.029,13.3011,4.60081,2470.577,2022-7-30T04:16:35Z
2022-07-30T02:17:50Z,42.805,6.029,13.3033,4.60091,2470.624,2022-7-30T04:19:38Z
2022-07-30T02:20:53Z,42.805,6.029,13.3016,4.60078,2470.624,2022-7-30T04:22:41Z
2022-07-30T02:23:56Z,42.805,6.029,13.3010,4.60090,2470.637,2022-7-30T04:25:44Z
2022-07-30T02:27:00Z,42.805,6.029,13.3012,4.60072,2470.614,2022-7-30T04:28:47Z
2022-07-30T02:30:03Z,42.805,6.029,13.3016,4.60102,2470.6,2022-7-30T04:31:50Z
2022-07-30T02:33:06Z,42.805,6.029,13.3021,4.60088,2470.577,2022-7-30T04:34:54Z
2022-07-30T02:36:09Z,42.805,6.029,13.3021,4.60070,2470.637,2022-7-30T04:37:57Z
2022-07-30T02:39:12Z,42.805,6.029,13.3018,4.60075,2470.577,2022-7-30T04:41:00Z
2022-07-30T02:42:15Z,42.805,6.029,13.3021,4.60074,2470.6,2022-7-30T04:44:03Z
2022-07-30T02:45:18Z,42.805,6.029,13.3024,4.60096,2470.6,2022-7-30T04:47:06Z
2022-07-30T02:48:21Z,42.805,6.029,13.3037,4.60094,2470.591,2022-7-30T04:50:09Z
2022-07-30T02:51:25Z,42.805,6.029,13.3017,4.60081,2470.6,2022-7-30T04:53:12Z
2022-07-30T02:54:28Z,42.805,6.029,13.3011,4.60074,2470.614,2022-7-30T04:56:15Z
2022-07-30T02:57:31Z,42.805,6.029,13.3020,4.60075,2470.6,2022-7-30T04:59:19Z
2022-07-30T03:00:34Z,42.805,6.029,13.3016,4.60087,2470.577,2022-7-30T05:02:22Z
2022-07-30T03:03:37Z,42.805,6.029,13.3011,4.60084,2470.577,2022-7-30T05:05:25Z
2022-07-30T03:06:40Z,42.805,6.029,13.3009,4.60072,2470.6,2022-7-30T05:08:28Z
2022-07-30T03:09:43Z,42.805,6.029,13.3016,4.60060,2470.614,2022-7-30T05:11:31Z
2022-07-30T03:12:46Z,42.805,6.029,13.3016,4.60075,2470.614,2022-7-30T05:14:34Z
2022-07-30T03:15:50Z,42.805,6.029,13.3024,4.60079,2470.6,2022-7-30T05:17:37Z
2022-07-30T03:18:53Z,42.805,6.029,13.3009,4.60077,2470.614,2022-7-30T05:20:40Z
2022-07-30T03:21:56Z,42.805,6.029,13.3015,4.60096,2470.591,2022-7-30T05:23:44Z
2022-07-30T03:24:59Z,42.805,6.029,13.3015,4.60072,2470.614,2022-7-30T05:26:47Z
2022-07-30T03:28:02Z,42.805,6.029,13.3013,4.60059,2470.591,2022-7-30T05:29:50Z
2022-07-30T03:31:05Z,42.805,6.029,13.3017,4.60064,2470.614,2022-7-30T05:32:53Z
2022-07-30T03:34:08Z,42.805,6.029,13.3010,4.60066,2470.6,2022-7-30T05:35:56Z
2022-07-30T03:37:11Z,42.805,6.029,13.3015,4.60069,2470.577,2022-7-30T05:38:59Z
2022-07-30T03:40:15Z,42.805,6.029,13.3024,4.60084,2470.6,2022-7-30T05:42:02Z
2022-07-30T03:43:18Z,42.805,6.029,13.3026,4.60081,2470.591,2022-7-30T05:45:05Z
2022-07-30T03:46:21Z,42.805,6.029,13.3015,4.60084,2470.637,2022-7-30T05:48:08Z
2022-07-30T03:49:24Z,42.805,6.029,13.3013,4.60072,2470.567,2022-7-30T05:51:12Z
2022-07-30T03:52:27Z,42.805,6.029,13.3015,4.60065,2470.614,2022-7-30T05:54:15Z
2022-07-30T03:55:30Z,42.805,6.029,13.3019,4.60069,2470.614,2022-7-30T05:57:18Z
2022-07-30T03:58:33Z,42.805,6.029,13.3015,4.60083,2470.567,2022-7-30T06:00:21Z
2022-07-30T04:01:36Z,42.805,6.029,13.3014,4.60087,2470.614,2022-7-30T06:03:24Z
2022-07-30T04:04:39Z,42.805,6.029,13.3018,4.60087,2470.6,2022-7-30T06:06:27Z
2022-07-30T04:07:43Z,42.805,6.029,13.3013,4.60069,2470.591,2022-7-30T06:09:30Z
2022-07-30T04:10:46Z,42.805,6.029,13.3023,4.60077,2470.614,2022-7-30T06:12:33Z
2022-07-30T04:13:49Z,42.805,6.029,13.3019,4.60085,2470.637,2022-7-30T06:15:37Z
2022-07-30T04:16:52Z,42.805,6.029,13.3020,4.60087,2470.637,2022-7-30T06:18:40Z
2022-07-30T04:19:55Z,42.805,6.029,13.3014,4.60072,2470.614,2022-7-30T06:21:43Z
2022-07-30T04:22:58Z,42.805,6.029,13.3014,4.60074,2470.624,2022-7-30T06:24:46Z
2022-07-30T04:26:01Z,42.805,6.029,13.3017,4.60078,2470.591,2022-7-30T06:27:49Z
2022-07-30T04:29:04Z,42.805,6.029,13.3009,4.60071,2470.6,2022-7-30T06:30:52Z
2022-07-30T04:32:08Z,42.805,6.029,13.3016,4.60074,2470.6,2022-7-30T06:33:55Z
2022-07-30T04:35:11Z,42.805,6.029,13.3017,4.60088,2470.6,2022-7-30T06:36:58Z
2022-07-30T04:38:14Z,42.805,6.029,13.3019,4.60068,2470.614,2022-7-30T06:40:02Z
2022-07-30T04:41:17Z,42.805,6.029,13.3011,4.60075,2470.624,2022-7-30T06:43:05Z
2022-07-30T04:44:20Z,42.805,6.029,13.3011,4.60076,2470.6,2022-7-30T06:46:08Z
2022-07-30T04:47:23Z,42.805,6.029,13.3014,4.60079,2470.637,2022-7-30T06:49:11Z
2022-07-30T04:50:26Z,42.805,6.029,13.3019,4.60073,2470.614,2022-7-30T06:52:14Z
2022-07-30T04:53:29Z,42.805,6.029,13.3021,4.60079,2470.6,2022-7-30T06:55:17Z
2022-07-30T04:56:33Z,42.805,6.029,13.3018,4.60070,2470.646,2022-7-30T06:58:20Z
2022-07-30T04:59:36Z,42.805,6.029,13.3013,4.60074,2470.624,2022-7-30T07:01:23Z
2022-07-30T05:02:39Z,42.805,6.029,13.3011,4.60085,2470.624,2022-7-30T07:04:26Z
2022-07-30T05:05:42Z,42.805,6.029,13.3019,4.60079,2470.624,2022-7-30T07:07:30Z
2022-07-30T05:08:45Z,42.805,6.029,13.3014,4.60097,2470.624,2022-7-30T07:10:33Z
2022-07-30T05:11:48Z,42.805,6.029,13.3009,4.60057,2470.624,2022-7-30T07:13:36Z
2022-07-30T05:14:51Z,42.805,6.029,13.3014,4.60059,2470.661,2022-7-30T07:16:39Z
2022-07-30T05:17:54Z,42.805,6.029,13.3012,4.60070,2470.624,2022-7-30T07:19:42Z
2022-07-30T05:20:58Z,42.805,6.029,13.3016,4.60072,2470.646,2022-7-30T07:22:45Z
2022-07-30T05:24:01Z,42.805,6.029,13.3020,4.60079,2470.646,2022-7-30T07:25:48Z
2022-07-30T05:27:04Z,42.805,6.029,13.3011,4.60066,2470.646,2022-7-30T07:28:51Z
2022-07-30T05:30:07Z,42.805,6.029,13.3012,4.60079,2470.646,2022-7-30T07:31:55Z
2022-07-30T05:33:10Z,42.805,6.029,13.3011,4.60081,2470.61,2022-7-30T07:34:58Z
2022-07-30T05:36:13Z,42.805,6.029,13.3015,4.60096,2470.646,2022-7-30T07:38:01Z
2022-07-30T05:39:16Z,42.805,6.029,13.3027,4.60091,2470.646,2022-7-30T07:41:04Z
2022-07-30T05:42:19Z,42.805,6.029,13.3026,4.60081,2470.67,2022-7-30T07:44:07Z
2022-07-30T05:45:22Z,42.805,6.029,13.3019,4.60092,2470.624,2022-7-30T07:47:10Z
2022-07-30T05:48:26Z,42.805,6.029,13.3010,4.60058,2470.661,2022-7-30T07:50:13Z
2022-07-30T05:51:29Z,42.805,6.029,13.3020,4.60074,2470.646,2022-7-30T07:53:16Z
2022-07-30T05:54:32Z,42.805,6.029,13.3017,4.60073,2470.661,2022-7-30T07:56:20Z
2022-07-30T05:57:35Z,42.805,6.029,13.3019,4.60081,2470.67,2022-7-30T07:59:23Z
2022-07-30T06:00:38Z,42.805,6.029,13.3011,4.60067,2470.646,2022-7-30T08:02:26Z
2022-07-30T06:03:41Z,42.805,6.029,13.3017,4.60073,2470.661,2022-7-30T08:05:29Z
2022-07-30T06:06:44Z,42.805,6.029,13.3011,4.60078,2470.67,2022-7-30T08:08:32Z
2022-07-30T06:09:47Z,42.805,6.029,13.3020,4.60076,2470.646,2022-7-30T08:11:35Z
2022-07-30T06:12:51Z,42.805,6.029,13.3023,4.60097,2470.684,2022-7-30T08:14:38Z
2022-07-30T06:15:54Z,42.805,6.029,13.3017,4.60085,2470.684,2022-7-30T08:17:41Z
2022-07-30T06:18:57Z,42.805,6.029,13.3024,4.60079,2470.67,2022-7-30T08:20:45Z
2022-07-30T06:22:00Z,42.805,6.029,13.3016,4.60079,2470.661,2022-7-30T08:23:48Z
2022-07-30T06:25:03Z,42.805,6.029,13.3019,4.60093,2470.684,2022-7-30T08:26:51Z
2022-07-30T06:28:06Z,42.805,6.029,13.3018,4.60077,2470.693,2022-7-30T08:29:54Z
2022-07-30T06:31:09Z,42.805,6.029,13.3011,4.60072,2470.684,2022-7-30T08:32:57Z
2022-07-30T06:34:12Z,42.805,6.029,13.3014,4.60073,2470.67,2022-7-30T08:36:00Z
2022-07-30T06:37:16Z,42.805,6.029,13.3024,4.60096,2470.693,2022-7-30T08:39:03Z
2022-07-30T06:40:19Z,42.805,6.029,13.3014,4.60076,2470.693,2022-7-30T08:42:06Z
2022-07-30T06:43:22Z,42.805,6.029,13.3014,4.60077,2470.679,2022-7-30T08:45:09Z
2022-07-30T06:46:25Z,42.805,6.029,13.3013,4.60075,2470.67,2022-7-30T08:48:13Z
2022-07-30T06:49:28Z,42.805,6.029,13.3014,4.60062,2470.67,2022-7-30T08:51:16Z
2022-07-30T06:52:31Z,42.805,6.029,13.3012,4.60070,2470.693,2022-7-30T08:54:19Z
2022-07-30T06:55:34Z,42.805,6.029,13.3022,4.60099,2470.707,2022-7-30T08:57:22Z
2022-07-30T06:58:37Z,42.805,6.029,13.3015,4.60074,2470.693,2022-7-30T09:00:25Z
2022-07-30T07:01:40Z,42.805,6.029,13.3011,4.60074,2470.693,2022-7-30T09:03:28Z
2022-07-30T07:04:44Z,42.805,6.029,13.3011,4.60068,2470.693,2022-7-30T09:06:31Z
2022-07-30T07:07:47Z,42.805,6.029,13.3013,4.60066,2470.693,2022-7-30T09:09:34Z
2022-07-30T07:10:50Z,42.805,6.029,13.3014,4.60081,2470.67,2022-7-30T09:12:38Z
2022-07-30T07:13:53Z,42.805,6.029,13.3014,4.60077,2470.67,2022-7-30T09:15:41Z
2022-07-30T07:16:56Z,42.805,6.029,13.3013,4.60055,2470.73,2022-7-30T09:18:44Z
2022-07-30T07:19:59Z,42.805,6.029,13.3011,4.60062,2470.707,2022-7-30T09:21:47Z
2022-07-30T07:23:02Z,42.805,6.029,13.3021,4.60081,2470.717,2022-7-30T09:24:50Z
2022-07-30T07:26:05Z,42.805,6.029,13.3021,4.60090,2470.693,2022-7-30T09:27:53Z
2022-07-30T07:29:09Z,42.805,6.029,13.3020,4.60077,2470.707,2022-7-30T09:30:56Z
2022-07-30T07:32:12Z,42.805,6.029,13.3028,4.60066,2470.707,2022-7-30T09:33:59Z
2022-07-30T07:35:15Z,42.805,6.029,13.3016,4.60092,2470.707,2022-7-30T09:37:03Z
2022-07-30T07:38:18Z,42.805,6.029,13.3012,4.60072,2470.717,2022-7-30T09:40:06Z
2022-07-30T07:41:21Z,42.805,6.029,13.3022,4.60087,2470.693,2022-7-30T09:43:09Z
2022-07-30T07:44:24Z,42.805,6.029,13.3024,4.60087,2470.73,2022-7-30T09:46:12Z
2022-07-30T07:47:27Z,42.805,6.029,13.3020,4.60089,2470.707,2022-7-30T09:49:15Z
2022-07-30T07:50:30Z,42.805,6.029,13.3026,4.60094,2470.693,2022-7-30T09:52:18Z
2022-07-30T07:53:34Z,42.805,6.029,13.3016,4.60101,2470.717,2022-7-30T09:55:21Z
2022-07-30T07:56:37Z,42.805,6.029,13.3014,4.60084,2470.693,2022-7-30T09:58:24Z
2022-07-30T07:59:40Z,42.805,6.029,13.3017,4.60077,2470.693,2022-7-30T10:01:28Z
2022-07-30T08:02:43Z,42.805,6.029,13.3018,4.60079,2470.717,2022-7-30T10:04:31Z
2022-07-30T08:05:46Z,42.805,6.029,13.3020,4.60076,2470.73,2022-7-30T10:07:34Z
2022-07-30T08:08:49Z,42.805,6.029,13.3019,4.60097,2470.693,2022-7-30T10:10:37Z
2022-07-30T08:11:52Z,42.805,6.029,13.3018,4.60080,2470.73,2022-7-30T10:13:40Z
2022-07-30T08:14:55Z,42.805,6.029,13.3011,4.60089,2470.717,2022-7-30T10:16:43Z
2022-07-30T08:17:59Z,42.805,6.029,13.3015,4.60086,2470.693,2022-7-30T10:19:46Z
2022-07-30T08:21:02Z,42.805,6.029,13.3015,4.60088,2470.707,2022-7-30T10:22:49Z
2022-07-30T08:24:05Z,42.805,6.029,13.3023,4.60076,2470.717,2022-7-30T10:25:53Z
2022-07-30T08:27:08Z,42.805,6.029,13.3016,4.60110,2470.693,2022-7-30T10:28:56Z
2022-07-30T08:30:11Z,42.805,6.029,13.3026,4.60094,2470.693,2022-7-30T10:31:59Z
2022-07-30T08:33:14Z,42.805,6.029,13.3023,4.60091,2470.693,2022-7-30T10:35:02Z
2022-07-30T08:36:17Z,42.805,6.029,13.3031,4.60092,2470.717,2022-7-30T10:38:05Z
2022-07-30T08:39:20Z,42.805,6.029,13.3021,4.60089,2470.717,2022-7-30T10:41:08Z
2022-07-30T08:42:24Z,42.805,6.029,13.3026,4.60112,2470.693,2022-7-30T10:44:11Z
2022-07-30T08:45:27Z,42.805,6.029,13.3024,4.60104,2470.707,2022-7-30T10:47:14Z
2022-07-30T08:48:30Z,42.805,6.029,13.3035,4.60098,2470.717,2022-7-30T10:50:18Z
2022-07-30T08:51:33Z,42.805,6.029,13.3034,4.60115,2470.67,2022-7-30T10:53:21Z
2022-07-30T08:54:36Z,42.805,6.029,13.3027,4.60110,2470.707,2022-7-30T10:56:24Z
2022-07-30T08:57:39Z,42.805,6.029,13.3022,4.60127,2470.717,2022-7-30T10:59:27Z
2022-07-30T09:00:42Z,42.805,6.029,13.3019,4.60112,2470.717,2022-7-30T11:02:30Z
2022-07-30T09:03:45Z,42.805,6.029,13.3021,4.60104,2470.693,2022-7-30T11:05:33Z
2022-07-30T09:06:49Z,42.805,6.029,13.3022,4.60101,2470.693,2022-7-30T11:08:36Z
2022-07-30T09:09:52Z,42.805,6.029,13.3031,4.60105,2470.684,2022-7-30T11:11:39Z
2022-07-30T09:12:55Z,42.805,6.029,13.3031,4.60099,2470.707,2022-7-30T11:14:43Z
2022-07-30T09:15:58Z,42.805,6.029,13.3027,4.60098,2470.684,2022-7-30T11:17:46Z
2022-07-30T09:19:01Z,42.805,6.029,13.3025,4.60109,2470.693,2022-7-30T11:20:49Z
2022-07-30T09:22:04Z,42.805,6.029,13.3026,4.60110,2470.693,2022-7-30T11:23:52Z
2022-07-30T09:25:07Z,42.805,6.029,13.3023,4.60107,2470.707,2022-7-30T11:26:55Z
2022-07-30T09:28:11Z,42.805,6.029,13.3022,4.60111,2470.693,2022-7-30T11:29:58Z
2022-07-30T09:31:14Z,42.805,6.029,13.3021,4.60100,2470.707,2022-7-30T11:33:01Z
2022-07-30T09:34:17Z,42.805,6.029,13.3022,4.60109,2470.67,2022-7-30T11:36:04Z
2022-07-30T09:37:20Z,42.805,6.029,13.3023,4.60104,2470.73,2022-7-30T11:39:08Z
2022-07-30T09:40:23Z,42.805,6.029,13.3016,4.60091,2470.67,2022-7-30T11:42:11Z
2022-07-30T09:43:26Z,42.805,6.029,13.3031,4.60094,2470.684,2022-7-30T11:45:14Z
2022-07-30T09:46:29Z,42.805,6.029,13.3018,4.60108,2470.684,2022-7-30T11:48:17Z
2022-07-30T09:49:32Z,42.805,6.029,13.3017,4.60097,2470.67,2022-7-30T11:51:20Z
2022-07-30T09:52:36Z,42.805,6.029,13.3029,4.60098,2470.646,2022-7-30T11:54:23Z
2022-07-30T09:55:39Z,42.805,6.029,13.3033,4.60089,2470.661,2022-7-30T11:57:26Z
2022-07-30T09:58:42Z,42.805,6.029,13.3022,4.60103,2470.646,2022-7-30T12:00:29Z
2022-07-30T10:01:45Z,42.805,6.029,13.3026,4.60086,2470.67,2022-7-30T12:03:33Z
2022-07-30T10:04:48Z,42.805,6.029,13.3030,4.60109,2470.67,2022-7-30T12:06:36Z
2022-07-30T10:07:51Z,42.805,6.029,13.3011,4.60086,2470.646,2022-7-30T12:09:39Z
2022-07-30T10:10:54Z,42.805,6.029,13.3013,4.60088,2470.624,2022-7-30T12:12:42Z
2022-07-30T10:13:57Z,42.805,6.029,13.3013,4.60086,2470.646,2022-7-30T12:15:45Z
2022-07-30T10:17:01Z,42.805,6.029,13.3023,4.60097,2470.661,2022-7-30T12:18:48Z
2022-07-30T10:20:04Z,42.805,6.029,13.3029,4.60092,2470.661,2022-7-30T12:21:51Z
2022-07-30T10:23:07Z,42.805,6.029,13.3028,4.60097,2470.646,2022-7-30T12:24:55Z
2022-07-30T10:26:10Z,42.805,6.029,13.3034,4.60087,2470.67,2022-7-30T12:27:58Z
2022-07-30T10:29:13Z,42.805,6.029,13.3022,4.60078,2470.646,2022-7-30T12:31:01Z
2022-07-30T10:32:16Z,42.805,6.029,13.3034,4.60090,2470.624,2022-7-30T12:34:04Z
2022-07-30T10:35:19Z,42.805,6.029,13.3019,4.60101,2470.646,2022-7-30T12:37:07Z
2022-07-30T10:38:22Z,42.805,6.029,13.3014,4.60094,2470.661,2022-7-30T12:40:10Z
2022-07-30T10:41:26Z,42.805,6.029,13.3029,4.60082,2470.661,2022-7-30T12:43:13Z
2022-07-30T10:44:29Z,42.805,6.029,13.3028,4.60091,2470.624,2022-7-30T12:46:16Z
2022-07-30T10:47:32Z,42.805,6.029,13.3016,4.60091,2470.637,2022-7-30T12:49:20Z
2022-07-30T10:50:35Z,42.805,6.029,13.3022,4.60091,2470.637,2022-7-30T12:52:23Z
2022-07-30T10:53:38Z,42.805,6.029,13.3024,4.60076,2470.624,2022-7-30T12:55:26Z
2022-07-30T10:56:41Z,42.805,6.029,13.3016,4.60082,2470.637,2022-7-30T12:58:29Z
2022-07-30T10:59:44Z,42.805,6.029,13.3019,4.60093,2470.637,2022-7-30T13:01:32Z
2022-07-30T11:02:47Z,42.805,6.029,13.3013,4.60089,2470.624,2022-7-30T13:04:35Z
2022-07-30T11:05:51Z,42.805,6.029,13.3019,4.60102,2470.624,2022-7-30T13:07:38Z
2022-07-30T11:08:54Z,42.805,6.029,13.3017,4.60092,2470.624,2022-7-30T13:10:41Z
2022-07-30T11:11:57Z,42.805,6.029,13.3016,4.60107,2470.591,2022-7-30T13:13:45Z
2022-07-30T11:15:00Z,42.805,6.029,13.3031,4.60097,2470.553,2022-7-30T13:16:48Z
2022-07-30T11:18:03Z,42.805,6.029,13.3025,4.60067,2470.661,2022-7-30T13:19:51Z
2022-07-30T11:21:06Z,42.805,6.029,13.3021,4.60084,2470.577,2022-7-30T13:22:54Z
2022-07-30T11:24:09Z,42.805,6.029,13.3024,4.60082,2470.614,2022-7-30T13:25:57Z
2022-07-30T11:27:12Z,42.805,6.029,13.3024,4.60067,2470.6,2022-7-30T13:29:00Z
2022-07-30T11:30:16Z,42.805,6.029,13.3021,4.60082,2470.6,2022-7-30T13:32:03Z
2022-07-30T11:33:19Z,42.805,6.029,13.3024,4.60102,2470.6,2022-7-30T13:35:06Z
2022-07-30T11:36:22Z,42.805,6.029,13.3029,4.60069,2470.614,2022-7-30T13:38:10Z
2022-07-30T11:39:25Z,42.805,6.029,13.3024,4.60097,2470.6,2022-7-30T13:41:13Z
2022-07-30T11:42:28Z,42.805,6.029,13.3024,4.60067,2470.614,2022-7-30T13:44:16Z
2022-07-30T11:45:31Z,42.805,6.029,13.3015,4.60087,2470.614,2022-7-30T13:47:19Z
2022-07-30T11:48:34Z,42.805,6.029,13.3023,4.60087,2470.591,2022-7-30T13:50:22Z
2022-07-30T11:51:37Z,42.805,6.029,13.3025,4.60099,2470.553,2022-7-30T13:53:25Z
2022-07-30T11:54:41Z,42.805,6.029,13.3021,4.60110,2470.591,2022-7-30T13:56:28Z
2022-07-30T11:57:44Z,42.805,6.029,13.3024,4.60078,2470.614,2022-7-30T13:59:31Z
2022-07-30T12:00:47Z,42.805,6.029,13.3016,4.60086,2470.553,2022-7-30T14:02:35Z
2022-07-30T12:03:50Z,42.805,6.029,13.3018,4.60094,2470.577,2022-7-30T14:05:38Z
2022-07-30T12:06:53Z,42.805,6.029,13.3019,4.60086,2470.577,2022-7-30T14:08:41Z
2022-07-30T12:09:56Z,42.805,6.029,13.3021,4.60103,2470.586,2022-7-30T14:11:44Z
2022-07-30T12:12:59Z,42.805,6.029,13.3023,4.60077,2470.567,2022-7-30T14:14:47Z
2022-07-30T12:16:02Z,42.805,6.029,13.3026,4.60087,2470.591,2022-7-30T14:17:50Z
2022-07-30T12:19:06Z,42.805,6.029,13.3025,4.60147,2470.577,2022-7-30T14:20:53Z
2022-07-30T12:22:09Z,42.805,6.029,13.3029,4.60090,2470.544,2022-7-30T14:23:56Z
2022-07-30T12:25:12Z,42.805,6.029,13.3040,4.60079,2470.591,2022-7-30T14:27:00Z
2022-07-30T12:28:15Z,42.805,6.029,13.3013,4.60079,2470.577,2022-7-30T14:30:03Z
2022-07-30T12:31:18Z,42.805,6.029,13.3023,4.60084,2470.591,2022-7-30T14:33:06Z
2022-07-30T12:34:21Z,42.805,6.029,13.3027,4.60110,2470.553,2022-7-30T14:36:09Z
2022-07-30T12:37:24Z,42.805,6.029,13.3018,4.60081,2470.577,2022-7-30T14:39:12Z
2022-07-30T12:40:27Z,42.805,6.029,13.3017,4.60112,2470.53,2022-7-30T14:42:15Z
2022-07-30T12:43:31Z,42.805,6.029,13.3031,4.60094,2470.577,2022-7-30T14:45:18Z
2022-07-30T12:46:34Z,42.805,6.029,13.3016,4.60080,2470.567,2022-7-30T14:48:21Z
2022-07-30T12:49:37Z,42.805,6.029,13.3018,4.60081,2470.577,2022-7-30T14:51:25Z
2022-07-30T12:52:40Z,42.805,6.029,13.3021,4.60092,2470.53,2022-7-30T14:54:28Z
2022-07-30T12:55:43Z,42.805,6.029,13.3018,4.60113,2470.577,2022-7-30T14:57:31Z
2022-07-30T12:58:46Z,42.805,6.029,13.3020,4.60102,2470.53,2022-7-30T15:00:34Z
2022-07-30T13:01:49Z,42.805,6.029,13.3024,4.60087,2470.553,2022-7-30T15:03:37Z
2022-07-30T13:04:53Z,42.805,6.029,13.3026,4.60092,2470.567,2022-7-30T15:06:40Z
2022-07-30T13:07:56Z,42.805,6.029,13.3021,4.60088,2470.567,2022-7-30T15:09:43Z
2022-07-30T13:10:59Z,42.805,6.029,13.3018,4.60103,2470.53,2022-7-30T15:12:46Z
2022-07-30T13:14:02Z,42.805,6.029,13.3013,4.60079,2470.53,2022-7-30T15:15:50Z
2022-07-30T13:17:05Z,42.805,6.029,13.3022,4.60093,2470.53,2022-7-30T15:18:53Z
2022-07-30T13:20:08Z,42.805,6.029,13.3012,4.60119,2470.577,2022-7-30T15:21:56Z
2022-07-30T13:23:11Z,42.805,6.029,13.3028,4.60094,2470.567,2022-7-30T15:24:59Z
2022-07-30T13:26:14Z,42.805,6.029,13.3019,4.60119,2470.567,2022-7-30T15:28:02Z
2022-07-30T13:29:17Z,42.805,6.029,13.3022,4.60097,2470.483,2022-7-30T15:31:05Z
2022-07-30T13:32:21Z,42.805,6.029,13.3023,4.60094,2470.567,2022-7-30T15:34:08Z
2022-07-30T13:35:24Z,42.805,6.029,13.3024,4.60092,2470.553,2022-7-30T15:37:11Z
2022-07-30T13:38:27Z,42.805,6.029,13.3037,4.60087,2470.577,2022-7-30T15:40:15Z
2022-07-30T13:41:30Z,42.805,6.029,13.3023,4.60103,2470.507,2022-7-30T15:43:18Z
2022-07-30T13:44:33Z,42.805,6.029,13.3019,4.60082,2470.553,2022-7-30T15:46:21Z
2022-07-30T13:47:36Z,42.805,6.029,13.3027,4.60087,2470.53,2022-7-30T15:49:24Z
2022-07-30T13:50:39Z,42.805,6.029,13.3031,4.60127,2470.507,2022-7-30T15:52:27Z
2022-07-30T13:53:43Z,42.805,6.029,13.3034,4.60088,2470.553,2022-7-30T15:55:30Z
2022-07-30T13:56:46Z,42.805,6.029,13.3035,4.60067,2470.507,2022-7-30T15:58:33Z
2022-07-30T13:59:49Z,42.805,6.029,13.3022,4.60070,2470.553,2022-7-30T16:01:36Z
2022-07-30T14:02:52Z,42.805,6.029,13.3027,4.60064,2470.507,2022-7-30T16:04:40Z
2022-07-30T14:05:55Z,42.805,6.029,13.3023,4.60104,2470.53,2022-7-30T16:07:43Z
2022-07-30T14:08:58Z,42.805,6.029,13.3034,4.60085,2470.544,2022-7-30T16:10:46Z
2022-07-30T14:12:01Z,42.805,6.029,13.3038,4.60092,2470.52,2022-7-30T16:13:49Z
2022-07-30T14:15:04Z,42.805,6.029,13.3028,4.60091,2470.507,2022-7-30T16:16:52Z
2022-07-30T14:18:08Z,42.805,6.029,13.3016,4.60074,2470.544,2022-7-30T16:19:55Z
2022-07-30T14:21:11Z,42.805,6.029,13.3026,4.60094,2470.52,2022-7-30T16:22:58Z
2022-07-30T14:24:14Z,42.805,6.029,13.3020,4.60095,2470.507,2022-7-30T16:26:01Z
2022-07-30T14:27:17Z,42.805,6.029,13.3029,4.60099,2470.567,2022-7-30T16:29:05Z
2022-07-30T14:30:20Z,42.805,6.029,13.3027,4.60086,2470.53,2022-7-30T16:32:08Z
2022-07-30T14:33:23Z,42.805,6.029,13.3014,4.60079,2470.507,2022-7-30T16:35:11Z
2022-07-30T14:36:26Z,42.805,6.029,13.3034,4.60089,2470.544,2022-7-30T16:38:14Z
2022-07-30T14:39:29Z,42.805,6.029,13.3024,4.60089,2470.591,2022-7-30T16:41:17Z
2022-07-30T14:42:33Z,42.805,6.029,13.3023,4.60086,2470.544,2022-7-30T16:44:20Z
2022-07-30T14:45:36Z,42.805,6.029,13.3020,4.60072,2470.53,2022-7-30T16:47:23Z
2022-07-30T14:48:39Z,42.805,6.029,13.3022,4.60104,2470.544,2022-7-30T16:50:27Z
2022-07-30T14:51:42Z,42.805,6.029,13.3021,4.60076,2470.53,2022-7-30T16:53:30Z
2022-07-30T14:54:45Z,42.805,6.029,13.3021,4.60077,2470.53,2022-7-30T16:56:33Z
2022-07-30T14:57:48Z,42.805,6.029,13.3029,4.60067,2470.544,2022-7-30T16:59:36Z
2022-07-30T15:00:51Z,42.805,6.029,13.3029,4.60065,2470.507,2022-7-30T17:02:39Z
2022-07-30T15:03:54Z,42.805,6.029,13.3031,4.60069,2470.567,2022-7-30T17:05:42Z
2022-07-30T15:06:58Z,42.805,6.029,13.3024,4.60084,2470.553,2022-7-30T17:08:45Z
2022-07-30T15:10:01Z,42.805,6.029,13.3036,4.60074,2470.52,2022-7-30T17:11:48Z
2022-07-30T15:13:04Z,42.805,6.029,13.3024,4.60085,2470.544,2022-7-30T17:14:52Z